Regional Weather Roundup
Issued by NWS

Home | Current Version | Previous Version | Text Only | Print | Product List | Glossary Off
Versions: 1 2 3 4 5 6 7 8 9 10 11 12 13 14 15 16 17 18 19 20 21 22 23 24 25 26 27 28 29 30 31 32 33 34 35 36 37 38 39 40 41 42 43 44 45 46 47 48 49 50

330
ASUS43 KLOT 261208
RWRIL

ILLINOIS REGIONAL WEATHER ROUNDUP
NATIONAL WEATHER SERVICE CHICAGO/ROMEOVILLE IL
600 AM CST SUN FEB 26 2017

NOTE: "FAIR" INDICATES FEW OR NO CLOUDS BELOW 12,000 FEET WITH NO
SIGNIFICANT WEATHER AND/OR OBSTRUCTIONS TO VISIBILITY.

* THESE STATIONS ARE NOT UNDER NWS QUALITY CONTROL. THEY ALSO MAY NOT
  REPORT WEATHER SUCH AS PRECIPITATION OR FOG.

ILZ001-002-007-009-015-016-024-261300-
NORTHWEST ILLINOIS

CITY           SKY/WX    TMP DP  RH WIND       PRES   REMARKS
MOLINE         CLOUDY    32  16  51 S14G24    29.94F WCI  22
6HR MIN TEMP:  26; 6HR MAX TEMP:  32;

STERLING*      CLOUDY    29  19  66 VRB6      29.97F WCI  23
$$

ILZ003-004-008-010-011-017-018-261300-
NORTH CENTRAL ILLINOIS

CITY           SKY/WX    TMP DP  RH WIND       PRES   REMARKS
ROCKFORD       CLOUDY    28  19  69 S12       29.98F WCI  18
6HR MIN TEMP:  22; 6HR MAX TEMP:  28;

FREEPORT*      CLOUDY    27  20  75 S16G22    29.94F WCI  14
ROCHELLE*      CLOUDY    27  20  76 S12       29.98F WCI  17
DE KALB*       CLOUDY    25  20  82 S10       29.99S WCI  15
PERU*          CLOUDY    26  17  67 S15       30.02S WCI  14
$$

ILZ005-006-012>014-019>023-261300-
NORTHEAST ILLINOIS

CITY           SKY/WX    TMP DP  RH WIND       PRES   REMARKS
CHICAGO-OHARE  MOCLDY    25  19  78 S8        30.01S WCI  16
6HR MIN TEMP:  21; 6HR MAX TEMP:  26;

CHICAGO-MIDWAY MOCLDY    25  17  72 S8        30.03S WCI  16
6HR MIN TEMP:  24; 6HR MAX TEMP:  26;

AURORA         CLOUDY    26  20  77 S8        30.01F WCI  18
6HR MIN TEMP:  23; 6HR MAX TEMP:  26;

LANSING*       PTCLDY    20  19  94 S6        30.06R WCI  12
JOLIET*        CLOUDY    27  22  82 S3        30.04F
WAUKEGAN       CLOUDY    25  18  74 S10       29.98S WCI  15
6HR MIN TEMP:  20; 6HR MAX TEMP:  25;

DUPAGE AIRPORT CLOUDY    25  19  78 S9        30.00F WCI  15
6HR MIN TEMP:  20; 6HR MAX TEMP:  25;

KANKAKEE*      CLOUDY    23  18  81 S6        30.07F WCI  16
WHEELING       MOCLDY    24  18  77 S8        30.02S WCI  15
6HR MIN TEMP:  23; 6HR MAX TEMP:  24;

MORRIS*        CLOUDY    25  20  81 CALM      30.03S
ROMEOVILLE*    CLOUDY    24  23  95 S7        30.03F WCI  16
NORTHERLY ISL    N/A     26  18  71 S6          N/A  WCI  20
$$

LMZ740>746-261300-
SOUTHERN LAKE MICHIGAN

STATION/POSITION SKY/WX   TEMP    WIND        PRES    VSBY  WAVE
                          AIR SEA DIR/SP/G                  HT/PER
                          (F)     (DEG/KT/KT) (MB)    (MI)  (FT/S)
HARRISON CRIB              28     190/ 17/ 18   N/A
BURNHAM HARBOR             26     180/  8/ 10   N/A
CALUMET HARBOR             24     170/  8/ 12 1016.8R
BURNS HARBOR               24     170/  9/ 14 1017.9F
MICHIGAN CITY              23     150/ 11/ 13   N/A
$$

ILZ025>027-034>036-040-047-049-050-058-095>099-261300-
WEST-CENTRAL ILLINOIS

CITY           SKY/WX    TMP DP  RH WIND       PRES   REMARKS
QUINCY         CLOUDY    30  16  56 S13       30.03R WCI  20
GALESBURG*     CLOUDY    29  19  65 S13       29.98F WCI  19
MACOMB*        CLOUDY    30  18  62 S12       30.03S WCI  20
JACKSONVILLE*  PTCLDY    29  16  57 S12       30.06R WCI  19
PITTSFIELD*    PTCLDY    29  17  59 S7        30.07R WCI  22
$$

ILZ028>032-037-038-041>044-048-051>054-059>061-261300-
CENTRAL ILLINOIS

CITY           SKY/WX    TMP DP  RH WIND       PRES   REMARKS
PONTIAC        CLOUDY    26  19  72 S10       30.06S WCI  16
BLOOMINGTON    CLOUDY    24  18  77 S13       30.06S WCI  12
DECATUR        CLEAR     24  13  62 S10       30.09F WCI  14
PEORIA         CLOUDY    27  17  66 S10       30.04F WCI  17
6HR MIN TEMP:  23; 6HR MAX TEMP:  28;

LACON*         CLOUDY    28  16  60 S8        30.03S WCI  20
LINCOLN*       MOCLDY    26  16  68 S9        30.07F WCI  16
SPRINGFIELD    CLEAR     28  15  58 S13       30.07F WCI  17
6HR MIN TEMP:  21; 6HR MAX TEMP:  28;

TAYLORVILLE    CLEAR     24  16  69 S9        30.09F WCI  15
6HR MIN TEMP:  19; 6HR MAX TEMP:  25;

$$

ILZ033-039-045-046-055>057-062-063-261300-
EAST-CENTRAL ILLINOIS

CITY           SKY/WX    TMP DP  RH WIND       PRES   REMARKS
CHAMPAIGN      CLEAR     21  14  74 S8        30.09S WCI  11
RANTOUL*       CLOUDY    22  18  83 SE5       30.09S WCI  16
MATTOON        CLEAR     22  16  78 S7        30.11S WCI  13
PARIS*         CLEAR     20  17  85 SE5       30.15R WCI  14
$$

ILZ079-100>102-261300-
SOUTHWEST ILLINOIS

CITY           SKY/WX    TMP DP  RH WIND       PRES   REMARKS
ALTON          PTCLDY    25  15  65 S6        30.11R WCI  18
BELLEVILLE     CLEAR     22  17  79 S5        30.11S WCI  16
CAHOKIA*       CLEAR     25  12  58 CALM      30.12R
SPARTA*        CLEAR     26  15  63 SE3       30.13F
$$

ILZ064>066-069>071-074>076-080>082-084>086-088>090-092>094-261300-
SOUTH-CENTRAL ILLINOIS

CITY           SKY/WX    TMP DP  RH WIND       PRES   REMARKS
CARBONDALE     CLEAR     22  17  81 S5        30.16R WCI  16
6HR MIN TEMP:  20; 6HR MAX TEMP:  26;

CAIRO*         CLEAR     25  17  72 SE6       30.18S WCI  18
EFFINGHAM*     CLEAR     23  18  81 E6        30.15F WCI  16
MARION         CLEAR     27  18  69 SE7       30.17S WCI  19
MT. VERNON     CLEAR     17  15  92 CALM      30.16S
CENTRALIA*     CLEAR     27  22  80 SE8       30.13S WCI  19
SALEM*         PTCLDY    27  16  63 SE5       30.14S WCI  21
METROPOLIS*    CLEAR     22  19  91 CALM      30.21R
$$

ILZ067-068-072-073-078-083-087-091-261300-
SOUTHEAST ILLINOIS

CITY           SKY/WX    TMP DP  RH WIND       PRES   REMARKS
LAWRENCEVILLE  PTCLDY    22  18  85 S6        30.19R WCI  14
FLORA*         CLEAR     21  18  86 SE6       30.16F WCI  14
FAIRFIELD*     CLEAR     23  19  86 CALM      30.16F
HARRISBURG*    CLEAR     23  21  93 CALM      30.19S
ROBINSON*      CLEAR     19  16  86 S5        30.19R WCI  13
CARMI*         CLEAR     23  20  90 SE6       30.18S WCI  15
$$

ABBREVIATIONS USED IN REMARKS
   TC - TEMPERATURE IN CELSIUS
  WCI - WIND CHILL INDEX
   HX - HEAT INDEX
  VSB - VISIBILITY
$$





USA.gov is the U.S. government's official web portal to all federal, state and local government web resources and services.